TimeCST,TemperatureF,Dew PointF,Humidity,Sea Level PressureIn,VisibilityMPH,Wind Direction,Wind SpeedMPH,Gust SpeedMPH,PrecipitationIn,Events,Conditions,WindDirDegrees,DateUTC
12:15 AM,26.6,24.8,93,29.53,4.0,North,21.9,31.1,N/A,Rain,Freezing Rain,360,2013-01-16 06:15:00
12:35 AM,24.8,23.0,93,29.54,8.0,NNW,21.9,32.2,N/A,,Overcast,340,2013-01-16 06:35:00
12:55 AM,24.8,23.0,93,29.56,9.0,NNW,20.7,27.6,N/A,,Overcast,340,2013-01-16 06:55:00
1:15 AM,23.0,21.2,93,29.58,4.0,NNW,23.0,29.9,N/A,,Overcast,330,2013-01-16 07:15:00
1:35 AM,21.2,17.6,86,29.59,3.0,NNW,21.9,33.4,N/A,Snow,Light Snow,340,2013-01-16 07:35:00
1:55 AM,19.4,15.8,86,29.62,5.0,NNW,23.0,32.2,N/A,Snow,Light Snow,330,2013-01-16 07:55:00
2:15 AM,17.6,14.0,86,29.65,5.0,NNW,23.0,32.2,N/A,,Haze,330,2013-01-16 08:15:00
2:35 AM,15.8,12.2,86,29.66,4.0,NNW,24.2,32.2,N/A,Snow,Light Snow,340,2013-01-16 08:35:00
2:55 AM,15.8,10.4,79,29.69,4.0,NNW,19.6,29.9,N/A,Snow,Light Snow,340,2013-01-16 08:55:00
3:15 AM,14.0,10.4,86,29.71,10.0,NNW,17.3,24.2,N/A,,Mostly Cloudy,340,2013-01-16 09:15:00
3:35 AM,14.0,10.4,86,29.71,10.0,North,17.3,23.0,N/A,Snow,Light Snow,350,2013-01-16 09:35:00
3:55 AM,14.0,10.4,86,29.72,10.0,North,15.0,20.7,N/A,Snow,Light Snow,350,2013-01-16 09:55:00
4:15 AM,14.0,8.6,79,29.73,10.0,NNW,19.6,25.3,N/A,,Mostly Cloudy,340,2013-01-16 10:15:00
4:35 AM,14.0,8.6,79,29.74,10.0,North,16.1,21.9,N/A,,Scattered Clouds,350,2013-01-16 10:35:00
4:55 AM,14.0,8.6,79,29.74,10.0,North,18.4,23.0,N/A,,Mostly Cloudy,350,2013-01-16 10:55:00
5:15 AM,12.2,8.6,85,29.75,10.0,North,15.0,23.0,N/A,Snow,Light Snow,350,2013-01-16 11:15:00
5:35 AM,10.4,6.8,85,29.75,10.0,North,18.4,24.2,N/A,,Overcast,360,2013-01-16 11:35:00
6:35 AM,8.6,1.4,73,29.78,10.0,North,19.6,29.9,N/A,,Scattered Clouds,360,2013-01-16 12:35:00
6:55 AM,8.6,-0.4,67,29.80,10.0,North,16.1,24.2,N/A,,Clear,360,2013-01-16 12:55:00
7:15 AM,6.8,-0.4,72,29.82,10.0,North,16.1,21.9,N/A,,Clear,360,2013-01-16 13:15:00
7:35 AM,6.8,-2.2,67,29.83,10.0,North,18.4,23.0,N/A,,Clear,360,2013-01-16 13:35:00
7:55 AM,5.0,-2.2,72,29.86,10.0,North,21.9,27.6,N/A,,Clear,10,2013-01-16 13:55:00
8:15 AM,5.0,-2.2,72,29.88,10.0,North,15.0,19.6,N/A,,Clear,350,2013-01-16 14:15:00
8:35 AM,5.0,-4.0,66,29.89,10.0,North,12.7,18.4,N/A,,Clear,350,2013-01-16 14:35:00
8:55 AM,3.2,-4.0,72,29.92,10.0,North,15.0,23.0,N/A,,Scattered Clouds,350,2013-01-16 14:55:00
9:15 AM,3.2,-4.0,72,29.94,10.0,North,18.4,26.5,N/A,,Partly Cloudy,350,2013-01-16 15:15:00
9:35 AM,3.2,-7.6,61,29.95,10.0,North,17.3,23.0,N/A,,Clear,360,2013-01-16 15:35:00
9:55 AM,1.4,-7.6,66,29.96,10.0,North,17.3,24.2,N/A,,Clear,350,2013-01-16 15:55:00
10:15 AM,1.4,-9.4,61,29.98,10.0,North,15.0,21.9,N/A,,Partly Cloudy,350,2013-01-16 16:15:00
10:35 AM,-0.4,-9.4,66,30.00,10.0,North,24.2,31.1,N/A,,Clear,350,2013-01-16 16:35:00
10:55 AM,-0.4,-11.2,60,30.02,10.0,North,16.1,24.2,N/A,,Clear,350,2013-01-16 16:55:00
11:15 AM,-0.4,-11.2,60,30.04,10.0,North,16.1,21.9,N/A,,Clear,350,2013-01-16 17:15:00
11:35 AM,-0.4,-13.0,55,30.05,10.0,North,17.3,20.7,N/A,,Clear,350,2013-01-16 17:35:00
11:55 AM,-0.4,-13.0,55,30.06,10.0,North,16.1,20.7,N/A,,Clear,350,2013-01-16 17:55:00
12:15 PM,-0.4,-11.2,60,30.07,10.0,North,13.8,21.9,N/A,,Partly Cloudy,360,2013-01-16 18:15:00
12:35 PM,-0.4,-11.2,60,30.07,10.0,North,13.8,20.7,N/A,,Mostly Cloudy,350,2013-01-16 18:35:00
12:55 PM,-0.4,-11.2,60,30.09,10.0,North,15.0,21.9,N/A,,Mostly Cloudy,350,2013-01-16 18:55:00
1:15 PM,-0.4,-11.2,60,30.09,10.0,North,15.0,-,N/A,,Mostly Cloudy,350,2013-01-16 19:15:00
1:35 PM,-0.4,-11.2,60,30.10,10.0,North,13.8,-,N/A,,Overcast,350,2013-01-16 19:35:00
1:55 PM,-0.4,-11.2,60,30.11,10.0,North,15.0,23.0,N/A,,Overcast,350,2013-01-16 19:55:00
2:15 PM,-0.4,-13.0,55,30.13,10.0,North,15.0,25.3,N/A,,Overcast,350,2013-01-16 20:15:00
2:35 PM,-0.4,-9999,N/A,30.14,10.0,North,12.7,18.4,N/A,,Mostly Cloudy,350,2013-01-16 20:35:00
2:55 PM,-0.4,-11.2,60,30.16,10.0,North,11.5,-,N/A,,Partly Cloudy,350,2013-01-16 20:55:00
3:15 PM,-2.2,-13.0,60,30.17,10.0,North,15.0,19.6,N/A,,Clear,360,2013-01-16 21:15:00
3:35 PM,-2.2,-13.0,60,30.19,10.0,North,13.8,20.7,N/A,,Scattered Clouds,350,2013-01-16 21:35:00
3:55 PM,-2.2,-11.2,66,30.20,10.0,North,13.8,-,N/A,,Mostly Cloudy,360,2013-01-16 21:55:00
4:15 PM,-2.2,-9999,N/A,30.22,10.0,North,13.8,-,N/A,,Mostly Cloudy,360,2013-01-16 22:15:00
4:35 PM,-4.0,-13.0,65,30.22,10.0,North,13.8,19.6,N/A,,Mostly Cloudy,360,2013-01-16 22:35:00
4:55 PM,-4.0,-13.0,65,30.23,10.0,North,12.7,-,N/A,,Partly Cloudy,360,2013-01-16 22:55:00
5:15 PM,-4.0,-14.8,60,30.24,10.0,North,9.2,-,N/A,,Mostly Cloudy,360,2013-01-16 23:15:00
5:35 PM,-4.0,-13.0,65,30.24,10.0,North,8.1,-,N/A,,Mostly Cloudy,10,2013-01-16 23:35:00
5:55 PM,-4.0,-14.8,60,30.23,10.0,NNE,9.2,-,N/A,,Partly Cloudy,20,2013-01-16 23:55:00
6:15 PM,-4.0,-14.8,60,30.24,10.0,North,6.9,-,N/A,,Clear,10,2013-01-17 00:15:00
6:35 PM,-4.0,-14.8,60,30.25,10.0,NNE,9.2,-,N/A,,Clear,20,2013-01-17 00:35:00
6:55 PM,-4.0,-14.8,60,30.25,10.0,North,5.8,-,N/A,,Clear,10,2013-01-17 00:55:00
7:15 PM,-4.0,-14.8,60,30.26,10.0,North,6.9,-,N/A,,Scattered Clouds,360,2013-01-17 01:15:00
7:35 PM,-4.0,-14.8,60,30.26,8.0,North,5.8,-,N/A,Snow,Light Snow,360,2013-01-17 01:35:00
7:55 PM,-4.0,-13.0,65,30.27,10.0,North,5.8,-,N/A,,Clear,350,2013-01-17 01:55:00
8:15 PM,-4.0,-13.0,65,30.28,9.0,North,4.6,-,N/A,Snow,Light Snow,350,2013-01-17 02:15:00
8:35 PM,-4.0,-13.0,65,30.28,3.0,Calm,Calm,-,N/A,Snow,Light Snow,0,2013-01-17 02:35:00
8:55 PM,-4.0,-11.2,71,30.28,3.0,Calm,Calm,-,N/A,Snow,Light Snow,0,2013-01-17 02:55:00
9:15 PM,-4.0,-11.2,71,30.30,4.0,WSW,4.6,-,N/A,Snow,Light Snow,240,2013-01-17 03:15:00
9:35 PM,-4.0,-11.2,71,30.30,6.0,SW,4.6,-,N/A,,Haze,220,2013-01-17 03:35:00
9:55 PM,-4.0,-11.2,71,30.29,4.0,SSW,6.9,-,N/A,Snow,Light Snow,210,2013-01-17 03:55:00
10:15 PM,-4.0,-9.4,78,30.28,4.0,SSW,6.9,-,N/A,,Haze,200,2013-01-17 04:15:00
10:35 PM,-2.2,-9.4,71,30.29,3.0,SSW,5.8,-,N/A,Snow,Light Snow,210,2013-01-17 04:35:00
10:55 PM,-2.2,-9.4,71,30.28,3.0,SSW,6.9,-,N/A,,Haze,200,2013-01-17 04:55:00
11:15 PM,-4.0,-9.4,78,30.27,8.0,South,6.9,-,N/A,,Mostly Cloudy,180,2013-01-17 05:15:00
11:35 PM,-2.2,-9.4,71,30.26,9.0,SSE,4.6,-,N/A,,Overcast,160,2013-01-17 05:35:00
11:55 PM,-2.2,-9.4,71,30.26,10.0,South,6.9,-,N/A,,Overcast,170,2013-01-17 05:55:00